date,time,SUV Intensity [MED/Hr],UV Index,Daily total [MED],Since Last [MED]
12/10/2022,00:01:24,0.001,0.0,0.0,0.0
12/10/2022,00:02:25,0.000,0.0,0.0,0.0
12/10/2022,00:03:24,0.000,0.0,0.0,0.0
12/10/2022,00:04:25,0.000,0.0,0.0,0.0
12/10/2022,00:05:25,0.000,0.0,0.0,0.0
12/10/2022,00:06:25,-0.000,0.0,0.0,0.0
12/10/2022,00:07:24,-0.002,0.0,0.0,0.0
12/10/2022,00:08:24,0.000,0.0,0.0,0.0
12/10/2022,00:09:24,0.000,0.0,0.0,0.0
12/10/2022,00:10:24,0.000,0.0,0.0,0.0
12/10/2022,00:11:24,0.000,0.0,0.0,0.0
12/10/2022,00:12:24,0.000,0.0,0.0,0.0
12/10/2022,00:13:24,0.000,0.0,0.0,0.0
12/10/2022,00:14:25,0.000,0.0,0.0,0.0
12/10/2022,00:15:24,-0.001,0.0,0.0,0.0
12/10/2022,00:16:24,0.000,0.0,0.0,0.0
12/10/2022,00:17:24,-0.000,0.0,0.0,0.0
12/10/2022,00:18:24,-0.000,0.0,0.0,0.0
12/10/2022,00:19:24,-0.000,0.0,0.0,0.0
12/10/2022,00:20:25,-0.000,0.0,0.0,0.0
12/10/2022,00:21:24,-0.000,0.0,0.0,0.0
12/10/2022,00:22:24,0.000,0.0,0.0,0.0
12/10/2022,00:23:24,-0.000,0.0,0.0,0.0
12/10/2022,00:24:25,0.000,0.0,0.0,0.0
12/10/2022,00:25:24,-0.000,0.0,0.0,0.0
12/10/2022,00:26:24,-0.000,0.0,0.0,0.0
12/10/2022,00:27:24,0.000,0.0,0.0,0.0
12/10/2022,00:28:24,-0.001,0.0,0.0,0.0
12/10/2022,00:29:25,-0.000,0.0,0.0,0.0
12/10/2022,00:30:24,-0.000,0.0,0.0,0.0
12/10/2022,00:31:24,-0.001,0.0,0.0,0.0
12/10/2022,00:32:24,-0.000,0.0,0.0,0.0
12/10/2022,00:33:24,-0.000,0.0,0.0,0.0
12/10/2022,00:34:24,-0.000,0.0,0.0,0.0
12/10/2022,00:35:24,-0.001,0.0,0.0,0.0
12/10/2022,00:36:25,-0.000,0.0,0.0,0.0
12/10/2022,00:37:24,-0.000,0.0,0.0,0.0
12/10/2022,00:38:24,-0.000,0.0,0.0,0.0
12/10/2022,00:39:24,-0.001,0.0,0.0,0.0
12/10/2022,00:40:25,0.000,0.0,0.0,0.0
12/10/2022,00:41:24,0.001,0.0,0.0,0.0
12/10/2022,00:42:24,0.000,0.0,0.0,0.0
12/10/2022,00:43:25,0.000,0.0,0.0,0.0
12/10/2022,00:44:24,0.000,0.0,0.0,0.0
12/10/2022,00:45:25,-0.001,0.0,0.0,0.0
12/10/2022,00:46:25,0.000,0.0,0.0,0.0
12/10/2022,00:47:24,0.000,0.0,0.0,0.0
12/10/2022,00:48:24,-0.001,0.0,0.0,0.0
12/10/2022,00:49:25,0.000,0.0,0.0,0.0
12/10/2022,00:50:24,-0.001,0.0,0.0,0.0
12/10/2022,00:51:25,-0.001,0.0,0.0,0.0
12/10/2022,00:52:24,-0.000,0.0,0.0,0.0
12/10/2022,00:53:24,0.000,0.0,0.0,0.0
12/10/2022,00:54:25,0.000,0.0,0.0,0.0
12/10/2022,00:55:24,0.000,0.0,0.0,0.0
12/10/2022,00:56:24,0.000,0.0,0.0,0.0
12/10/2022,00:57:25,-0.000,0.0,0.0,0.0
12/10/2022,00:58:24,0.000,0.0,0.0,0.0
12/10/2022,00:59:25,0.000,0.0,0.0,0.0
12/10/2022,01:00:24,0.000,0.0,0.0,0.0
12/10/2022,01:01:24,0.000,0.0,0.0,0.0
12/10/2022,01:02:25,0.000,0.0,0.0,0.0
12/10/2022,01:03:24,-0.000,0.0,0.0,0.0
12/10/2022,01:04:24,0.000,0.0,0.0,0.0
12/10/2022,01:05:24,0.001,0.0,0.0,0.0
12/10/2022,01:06:25,0.000,0.0,0.0,0.0
12/10/2022,01:07:25,0.000,0.0,0.0,0.0
12/10/2022,01:08:24,0.000,0.0,0.0,0.0
12/10/2022,01:09:24,0.000,0.0,0.0,0.0
12/10/2022,01:10:25,0.000,0.0,0.0,0.0
12/10/2022,01:11:24,0.000,0.0,0.0,0.0
12/10/2022,01:12:25,0.000,0.0,0.0,0.0
12/10/2022,01:13:24,0.000,0.0,0.0,0.0
12/10/2022,01:14:25,0.000,0.0,0.0,0.0
12/10/2022,01:15:24,0.000,0.0,0.0,0.0
12/10/2022,01:16:24,0.000,0.0,0.0,0.0
12/10/2022,01:17:24,0.000,0.0,0.0,0.0
12/10/2022,01:18:25,0.000,0.0,0.0,0.0
12/10/2022,01:19:24,0.000,0.0,0.0,0.0
12/10/2022,01:20:24,0.000,0.0,0.0,0.0
12/10/2022,01:21:25,0.000,0.0,0.0,0.0
12/10/2022,01:22:24,0.000,0.0,0.0,0.0
12/10/2022,01:23:24,0.000,0.0,0.0,0.0
12/10/2022,01:24:25,0.000,0.0,0.0,0.0
12/10/2022,01:25:24,0.000,0.0,0.0,0.0
12/10/2022,01:26:25,0.000,0.0,0.0,0.0
12/10/2022,01:27:25,0.000,0.0,0.0,0.0
12/10/2022,01:28:24,0.000,0.0,0.0,0.0
12/10/2022,01:29:25,0.000,0.0,0.0,0.0
12/10/2022,01:30:25,0.000,0.0,0.0,0.0
12/10/2022,01:31:24,0.000,0.0,0.0,0.0
12/10/2022,01:32:24,0.000,0.0,0.0,0.0
12/10/2022,01:33:25,0.000,0.0,0.0,0.0
12/10/2022,01:34:24,0.000,0.0,0.0,0.0
12/10/2022,01:35:24,0.000,0.0,0.0,0.0
12/10/2022,01:36:24,0.000,0.0,0.0,0.0
12/10/2022,01:37:25,0.000,0.0,0.0,0.0
12/10/2022,01:38:24,0.000,0.0,0.0,0.0
12/10/2022,01:39:24,0.000,0.0,0.0,0.0
12/10/2022,01:40:25,0.000,0.0,0.0,0.0
12/10/2022,01:41:24,0.000,0.0,0.0,0.0
12/10/2022,01:42:24,0.000,0.0,0.0,0.0
12/10/2022,01:43:24,-0.000,0.0,0.0,0.0
12/10/2022,01:44:25,0.000,0.0,0.0,0.0
12/10/2022,01:45:24,-0.001,0.0,0.0,0.0
12/10/2022,01:46:25,0.000,0.0,0.0,0.0
12/10/2022,01:47:24,0.001,0.0,0.0,0.0
12/10/2022,01:48:24,0.000,0.0,0.0,0.0
12/10/2022,01:49:25,0.000,0.0,0.0,0.0
12/10/2022,01:50:24,-0.000,0.0,0.0,0.0
12/10/2022,01:51:24,0.000,0.0,0.0,0.0
12/10/2022,01:52:25,-0.000,0.0,0.0,0.0
12/10/2022,01:53:24,0.000,0.0,0.0,0.0
12/10/2022,01:54:24,-0.001,0.0,0.0,0.0
12/10/2022,01:55:24,-0.001,0.0,0.0,0.0
12/10/2022,01:56:25,-0.000,0.0,0.0,0.0
12/10/2022,01:57:25,0.000,0.0,0.0,0.0
12/10/2022,01:58:24,0.000,0.0,0.0,0.0
12/10/2022,01:59:25,0.000,0.0,0.0,0.0
12/10/2022,02:00:24,0.000,0.0,0.0,0.0
12/10/2022,02:01:24,0.000,0.0,0.0,0.0
12/10/2022,02:02:24,-0.001,0.0,0.0,0.0
12/10/2022,02:03:25,0.000,0.0,0.0,0.0
12/10/2022,02:04:25,0.000,0.0,0.0,0.0
12/10/2022,02:05:25,0.000,0.0,0.0,0.0
12/10/2022,02:06:25,0.000,0.0,0.0,0.0
12/10/2022,02:07:24,-0.000,0.0,0.0,0.0
12/10/2022,02:08:24,-0.001,0.0,0.0,0.0
12/10/2022,02:09:25,0.000,0.0,0.0,0.0
12/10/2022,02:10:25,-0.000,0.0,0.0,0.0
12/10/2022,02:12:41,0.000,0.0,0.0,0.0
12/10/2022,02:13:24,-0.000,0.0,0.0,0.0
12/10/2022,02:14:25,-0.000,0.0,0.0,0.0
12/10/2022,02:15:25,0.000,0.0,0.0,0.0
12/10/2022,02:16:25,0.000,0.0,0.0,0.0
12/10/2022,02:17:24,0.000,0.0,0.0,0.0
12/10/2022,02:18:25,0.000,0.0,0.0,0.0
12/10/2022,02:19:25,-0.001,0.0,0.0,0.0
12/10/2022,02:20:25,-0.000,0.0,0.0,0.0
12/10/2022,02:21:24,-0.000,0.0,0.0,0.0
12/10/2022,02:22:24,-0.000,0.0,0.0,0.0
12/10/2022,02:23:25,0.000,0.0,0.0,0.0
12/10/2022,02:24:24,0.001,0.0,0.0,0.0
12/10/2022,02:25:24,-0.001,0.0,0.0,0.0
12/10/2022,02:26:25,-0.000,0.0,0.0,0.0
12/10/2022,02:27:25,0.000,0.0,0.0,0.0
12/10/2022,02:28:25,-0.000,0.0,0.0,0.0
12/10/2022,02:29:24,-0.000,0.0,0.0,0.0
12/10/2022,02:30:25,0.000,0.0,0.0,0.0
12/10/2022,02:31:25,-0.000,0.0,0.0,0.0
12/10/2022,02:32:25,-0.000,0.0,0.0,0.0
12/10/2022,02:33:24,-0.000,0.0,0.0,0.0
12/10/2022,02:34:25,-0.001,0.0,0.0,0.0
12/10/2022,02:35:25,0.000,0.0,0.0,0.0
12/10/2022,02:36:24,-0.000,0.0,0.0,0.0
12/10/2022,02:37:25,-0.000,0.0,0.0,0.0
12/10/2022,02:38:24,0.000,0.0,0.0,0.0
12/10/2022,02:39:25,-0.001,0.0,0.0,0.0
12/10/2022,02:40:24,-0.000,0.0,0.0,0.0
12/10/2022,02:41:24,0.000,0.0,0.0,0.0
12/10/2022,02:42:24,-0.001,0.0,0.0,0.0
12/10/2022,02:43:25,-0.000,0.0,0.0,0.0
12/10/2022,02:44:24,-0.000,0.0,0.0,0.0
12/10/2022,02:45:24,-0.000,0.0,0.0,0.0
12/10/2022,02:46:24,-0.001,0.0,0.0,0.0
12/10/2022,02:47:25,-0.000,0.0,0.0,0.0
12/10/2022,02:48:24,-0.001,0.0,0.0,0.0
12/10/2022,02:49:24,-0.000,0.0,0.0,0.0
12/10/2022,02:50:25,-0.001,0.0,0.0,0.0
12/10/2022,02:51:25,-0.000,0.0,0.0,0.0
12/10/2022,02:52:24,-0.001,0.0,0.0,0.0
12/10/2022,02:53:25,-0.000,0.0,0.0,0.0
12/10/2022,02:54:25,0.000,0.0,0.0,0.0
12/10/2022,02:55:24,-0.000,0.0,0.0,0.0
12/10/2022,02:56:24,-0.000,0.0,0.0,0.0
12/10/2022,02:57:25,-0.000,0.0,0.0,0.0
12/10/2022,02:58:24,-0.000,0.0,0.0,0.0
12/10/2022,02:59:24,0.000,0.0,0.0,0.0
12/10/2022,03:00:25,-0.000,0.0,0.0,0.0
12/10/2022,03:01:25,0.000,0.0,0.0,0.0
12/10/2022,03:02:24,-0.000,0.0,0.0,0.0
12/10/2022,03:03:24,0.000,0.0,0.0,0.0
12/10/2022,03:04:25,-0.000,0.0,0.0,0.0
12/10/2022,03:05:25,-0.001,0.0,0.0,0.0
12/10/2022,03:06:24,0.000,0.0,0.0,0.0
12/10/2022,03:07:25,-0.000,0.0,0.0,0.0
12/10/2022,03:08:25,-0.000,0.0,0.0,0.0
12/10/2022,03:09:24,0.000,0.0,0.0,0.0
12/10/2022,03:10:25,-0.000,0.0,0.0,0.0
12/10/2022,03:11:25,-0.000,0.0,0.0,0.0
12/10/2022,03:12:25,-0.000,0.0,0.0,0.0
12/10/2022,03:13:24,-0.000,0.0,0.0,0.0
12/10/2022,03:14:25,-0.000,0.0,0.0,0.0
12/10/2022,03:15:24,0.000,0.0,0.0,0.0
12/10/2022,03:16:24,-0.000,0.0,0.0,0.0
12/10/2022,03:17:25,-0.001,0.0,0.0,0.0
12/10/2022,03:18:25,-0.000,0.0,0.0,0.0
12/10/2022,03:19:24,-0.001,0.0,0.0,0.0
12/10/2022,03:20:24,-0.000,0.0,0.0,0.0
12/10/2022,03:21:25,-0.000,0.0,0.0,0.0
12/10/2022,03:22:25,-0.000,0.0,0.0,0.0
12/10/2022,03:23:25,-0.000,0.0,0.0,0.0
12/10/2022,03:24:24,-0.000,0.0,0.0,0.0
12/10/2022,03:25:24,-0.000,0.0,0.0,0.0
12/10/2022,03:26:25,0.000,0.0,0.0,0.0
12/10/2022,03:27:25,-0.000,0.0,0.0,0.0
12/10/2022,03:28:24,-0.000,0.0,0.0,0.0
12/10/2022,03:29:24,0.000,0.0,0.0,0.0
12/10/2022,03:30:25,0.000,0.0,0.0,0.0
12/10/2022,03:31:25,0.000,0.0,0.0,0.0
12/10/2022,03:32:25,-0.000,0.0,0.0,0.0
12/10/2022,03:33:25,-0.000,0.0,0.0,0.0
12/10/2022,03:34:25,0.000,0.0,0.0,0.0
12/10/2022,03:35:24,0.000,0.0,0.0,0.0
12/10/2022,03:36:25,0.001,0.0,0.0,0.0
12/10/2022,03:37:25,-0.000,0.0,0.0,0.0
12/10/2022,03:38:25,-0.000,0.0,0.0,0.0
12/10/2022,03:39:26,-0.000,0.0,0.0,0.0
12/10/2022,03:40:25,-0.000,0.0,0.0,0.0
12/10/2022,03:41:24,-0.000,0.0,0.0,0.0
12/10/2022,03:42:25,-0.000,0.0,0.0,0.0
12/10/2022,03:43:25,-0.000,0.0,0.0,0.0
12/10/2022,03:44:25,-0.001,0.0,0.0,0.0
12/10/2022,03:45:25,-0.000,0.0,0.0,0.0
12/10/2022,03:46:25,0.000,0.0,0.0,0.0
12/10/2022,03:47:25,0.000,0.0,0.0,0.0
12/10/2022,03:48:25,-0.000,0.0,0.0,0.0
12/10/2022,03:49:24,0.000,0.0,0.0,0.0
12/10/2022,03:50:25,-0.001,0.0,0.0,0.0
12/10/2022,03:51:24,0.000,0.0,0.0,0.0
12/10/2022,03:52:24,0.000,0.0,0.0,0.0
12/10/2022,03:53:25,0.000,0.0,0.0,0.0
12/10/2022,03:54:27,-0.001,0.0,0.0,0.0
12/10/2022,03:55:25,-0.000,0.0,0.0,0.0
12/10/2022,03:56:25,0.000,0.0,0.0,0.0
12/10/2022,03:57:25,-0.000,0.0,0.0,0.0
12/10/2022,03:58:25,-0.000,0.0,0.0,0.0
12/10/2022,03:59:24,-0.000,0.0,0.0,0.0
12/10/2022,04:00:25,0.000,0.0,0.0,0.0
12/10/2022,04:01:25,0.000,0.0,0.0,0.0
12/10/2022,04:02:25,0.000,0.0,0.0,0.0
12/10/2022,04:03:25,-0.000,0.0,0.0,0.0
12/10/2022,04:04:24,-0.000,0.0,0.0,0.0
12/10/2022,04:05:25,-0.000,0.0,0.0,0.0
12/10/2022,04:06:24,-0.000,0.0,0.0,0.0
12/10/2022,04:07:26,0.000,0.0,0.0,0.0
12/10/2022,04:08:25,-0.000,0.0,0.0,0.0
12/10/2022,04:09:25,0.000,0.0,0.0,0.0
12/10/2022,04:10:25,-0.000,0.0,0.0,0.0
12/10/2022,04:12:42,-0.000,0.0,0.0,0.0
12/10/2022,04:13:24,0.000,0.0,0.0,0.0
12/10/2022,04:14:26,-0.001,0.0,0.0,0.0
12/10/2022,04:15:25,0.000,0.0,0.0,0.0
12/10/2022,04:16:25,-0.000,0.0,0.0,0.0
12/10/2022,04:17:25,-0.000,0.0,0.0,0.0
12/10/2022,04:18:25,-0.000,0.0,0.0,0.0
12/10/2022,04:19:24,-0.000,0.0,0.0,0.0
12/10/2022,04:20:25,-0.000,0.0,0.0,0.0
12/10/2022,04:21:25,0.000,0.0,0.0,0.0
12/10/2022,04:22:25,-0.000,0.0,0.0,0.0
12/10/2022,04:23:25,-0.001,0.0,0.0,0.0
12/10/2022,04:24:25,-0.000,0.0,0.0,0.0
12/10/2022,04:25:24,-0.000,0.0,0.0,0.0
12/10/2022,04:26:25,-0.000,0.0,0.0,0.0
12/10/2022,04:27:25,-0.000,0.0,0.0,0.0
12/10/2022,04:28:25,-0.000,0.0,0.0,0.0
12/10/2022,04:29:25,0.000,0.0,0.0,0.0
12/10/2022,04:30:25,-0.000,0.0,0.0,0.0
12/10/2022,04:31:25,-0.000,0.0,0.0,0.0
12/10/2022,04:32:24,0.000,0.0,0.0,0.0
12/10/2022,04:33:25,-0.001,0.0,0.0,0.0
12/10/2022,04:34:25,-0.001,0.0,0.0,0.0
12/10/2022,04:35:25,-0.001,0.0,0.0,0.0
12/10/2022,04:36:25,0.000,0.0,0.0,0.0
12/10/2022,04:37:25,-0.000,0.0,0.0,0.0
12/10/2022,04:38:24,-0.000,0.0,0.0,0.0
12/10/2022,04:39:25,-0.000,0.0,0.0,0.0
12/10/2022,04:40:24,-0.001,0.0,0.0,0.0
12/10/2022,04:41:24,0.000,0.0,0.0,0.0
12/10/2022,04:42:25,-0.001,0.0,0.0,0.0
12/10/2022,04:43:26,-0.001,0.0,0.0,0.0
12/10/2022,04:44:25,-0.000,0.0,0.0,0.0
12/10/2022,04:45:24,-0.000,0.0,0.0,0.0
12/10/2022,04:46:25,-0.001,0.0,0.0,0.0
12/10/2022,04:47:25,-0.001,0.0,0.0,0.0
12/10/2022,04:48:24,-0.000,0.0,0.0,0.0
12/10/2022,04:49:24,-0.001,0.0,0.0,0.0
12/10/2022,04:50:25,-0.001,0.0,0.0,0.0
12/10/2022,04:51:24,-0.001,0.0,0.0,0.0
12/10/2022,04:52:24,0.000,0.0,0.0,0.0
12/10/2022,04:53:25,-0.001,0.0,0.0,0.0
12/10/2022,04:54:25,-0.001,0.0,0.0,0.0
12/10/2022,04:55:25,-0.000,0.0,0.0,0.0
12/10/2022,04:56:25,-0.001,0.0,0.0,0.0
12/10/2022,04:57:25,-0.001,0.0,0.0,0.0
12/10/2022,04:58:25,0.000,0.0,0.0,0.0
12/10/2022,04:59:25,-0.000,0.0,0.0,0.0
12/10/2022,05:00:25,0.000,0.0,0.0,0.0
12/10/2022,05:01:26,-0.002,0.0,0.0,0.0
12/10/2022,05:02:25,0.000,0.0,0.0,0.0
12/10/2022,05:03:25,-0.001,0.0,0.0,0.0
12/10/2022,05:04:24,-0.001,0.0,0.0,0.0
12/10/2022,05:05:25,-0.001,0.0,0.0,0.0
12/10/2022,05:06:25,0.000,0.0,0.0,0.0
12/10/2022,05:07:24,-0.001,0.0,0.0,0.0
12/10/2022,05:08:25,-0.001,0.0,0.0,0.0
12/10/2022,05:09:25,0.001,0.0,0.0,0.0
12/10/2022,05:10:25,-0.001,0.0,0.0,0.0
12/10/2022,05:11:27,-0.001,0.0,0.0,0.0
12/10/2022,05:12:24,0.000,0.0,0.0,0.0
12/10/2022,05:13:25,-0.001,0.0,0.0,0.0
12/10/2022,05:14:25,-0.001,0.0,0.0,0.0
12/10/2022,05:15:25,-0.001,0.0,0.0,0.0
12/10/2022,05:16:25,-0.000,0.0,0.0,0.0
12/10/2022,05:17:25,-0.002,0.0,0.0,0.0
12/10/2022,05:18:25,-0.001,0.0,0.0,0.0
12/10/2022,05:19:25,-0.001,0.0,0.0,0.0
12/10/2022,05:20:24,-0.001,0.0,0.0,0.0
12/10/2022,05:21:25,0.000,0.0,0.0,0.0
12/10/2022,05:22:25,-0.001,0.0,0.0,0.0
12/10/2022,05:23:25,-0.001,0.0,0.0,0.0
12/10/2022,05:24:24,0.001,0.0,0.0,0.0
12/10/2022,05:25:25,-0.001,0.0,0.0,0.0
12/10/2022,05:26:25,-0.000,0.0,0.0,0.0
12/10/2022,05:27:25,-0.001,0.0,0.0,0.0
12/10/2022,05:28:24,-0.001,0.0,0.0,0.0
12/10/2022,05:29:25,-0.000,0.0,0.0,0.0
12/10/2022,05:30:25,-0.001,0.0,0.0,0.0
12/10/2022,05:31:25,-0.001,0.0,0.0,0.0
12/10/2022,05:32:25,-0.001,0.0,0.0,0.0
12/10/2022,05:33:24,-0.002,0.0,0.0,0.0
12/10/2022,05:34:25,-0.001,0.0,0.0,0.0
12/10/2022,05:35:25,0.000,0.0,0.0,0.0
12/10/2022,05:36:25,-0.001,0.0,0.0,0.0
12/10/2022,05:37:26,-0.001,0.0,0.0,0.0
12/10/2022,05:38:26,-0.001,0.0,0.0,0.0
12/10/2022,05:39:25,-0.001,0.0,0.0,0.0
12/10/2022,05:40:25,-0.001,0.0,0.0,0.0
12/10/2022,05:41:25,-0.001,0.0,0.0,0.0
12/10/2022,05:42:25,-0.001,0.0,0.0,0.0
12/10/2022,05:43:25,-0.002,0.0,0.0,0.0
12/10/2022,05:44:24,-0.001,0.0,0.0,0.0
12/10/2022,05:45:25,-0.001,0.0,0.0,0.0
12/10/2022,05:46:25,-0.001,0.0,0.0,0.0
12/10/2022,05:47:25,-0.001,0.0,0.0,0.0
12/10/2022,05:48:25,-0.001,0.0,0.0,0.0
12/10/2022,05:49:24,-0.001,0.0,0.0,0.0
12/10/2022,05:50:25,-0.001,0.0,0.0,0.0
12/10/2022,05:51:25,-0.001,0.0,0.0,0.0
12/10/2022,05:52:24,0.000,0.0,0.0,0.0
12/10/2022,05:53:25,-0.001,0.0,0.0,0.0
12/10/2022,05:54:25,0.000,0.0,0.0,0.0
12/10/2022,05:55:25,-0.001,0.0,0.0,0.0
12/10/2022,05:56:24,0.000,0.0,0.0,0.0
12/10/2022,05:57:25,-0.001,0.0,0.0,0.0
12/10/2022,05:58:25,-0.001,0.0,0.0,0.0
12/10/2022,05:59:25,-0.001,0.0,0.0,0.0
12/10/2022,06:00:25,-0.002,0.0,0.0,0.0
12/10/2022,06:01:24,-0.001,0.0,0.0,0.0
12/10/2022,06:02:25,-0.001,0.0,0.0,0.0
12/10/2022,06:03:25,0.000,0.0,0.0,0.0
12/10/2022,06:04:25,-0.001,0.0,0.0,0.0
12/10/2022,06:05:25,0.000,0.0,0.0,0.0
12/10/2022,06:06:25,-0.000,0.0,0.0,0.0
12/10/2022,06:07:25,-0.000,0.0,0.0,0.0
12/10/2022,06:08:24,-0.000,0.0,0.0,0.0
12/10/2022,06:09:25,0.000,0.0,0.0,0.0
12/10/2022,06:10:25,0.000,0.0,0.0,0.0
12/10/2022,06:11:25,-0.000,0.0,0.0,0.0
12/10/2022,06:12:25,-0.000,0.0,0.0,0.0
12/10/2022,06:13:25,-0.000,0.0,0.0,0.0
12/10/2022,06:15:42,0.000,0.0,0.0,0.0
12/10/2022,06:16:24,0.000,0.0,0.0,0.0
12/10/2022,06:17:25,0.000,0.0,0.0,0.0
12/10/2022,06:18:25,0.000,0.0,0.0,0.0
12/10/2022,06:19:25,0.000,0.0,0.0,0.0
12/10/2022,06:20:25,0.000,0.0,0.0,0.0
12/10/2022,06:21:25,0.001,0.0,0.0,0.0
12/10/2022,06:22:25,0.000,0.0,0.0,0.0
12/10/2022,06:23:25,0.001,0.0,0.0,0.0
12/10/2022,06:24:25,0.001,0.0,0.0,0.0
12/10/2022,06:25:25,0.002,0.0,0.0,0.0
12/10/2022,06:26:25,0.001,0.0,0.0,0.0
12/10/2022,06:27:25,0.001,0.0,0.0,0.0
12/10/2022,06:28:25,0.001,0.0,0.0,0.0
12/10/2022,06:29:25,0.002,0.0,0.0,0.0
12/10/2022,06:30:25,0.002,0.0,0.0,0.0
12/10/2022,06:31:25,0.003,0.0,0.0,0.0
12/10/2022,06:32:25,0.003,0.0,0.0,0.0
12/10/2022,06:33:25,0.002,0.0,0.0,0.0
12/10/2022,06:34:25,0.003,0.0,0.0,0.0
12/10/2022,06:35:25,0.003,0.0,0.0,0.0
12/10/2022,06:36:25,0.003,0.0,0.0,0.0
12/10/2022,06:37:25,0.003,0.0,0.0,0.0
12/10/2022,06:38:26,0.003,0.0,0.0,0.0
12/10/2022,06:39:25,0.003,0.0,0.0,0.0
12/10/2022,06:40:25,0.003,0.0,0.0,0.0
12/10/2022,06:41:25,0.003,0.0,0.0,0.0
12/10/2022,06:42:25,0.004,0.0,0.0,0.0
12/10/2022,06:43:25,0.004,0.0,0.0,0.0
12/10/2022,06:44:25,0.004,0.0,0.0,0.0
12/10/2022,06:45:25,0.005,0.0,0.0,0.0
12/10/2022,06:46:25,0.005,0.0,0.0,0.0
12/10/2022,06:47:25,0.005,0.0,0.0,0.0
12/10/2022,06:48:25,0.005,0.0,0.0,0.0
12/10/2022,06:49:25,0.006,0.0,0.0,0.0
12/10/2022,06:50:25,0.006,0.0,0.0,0.0
12/10/2022,06:51:25,0.006,0.0,0.0,0.0
12/10/2022,06:52:25,0.006,0.0,0.0,0.0
12/10/2022,06:53:25,0.007,0.0,0.0,0.0
12/10/2022,06:54:25,0.008,0.0,0.0,0.0
12/10/2022,06:55:25,0.007,0.0,0.001,0.001
12/10/2022,06:56:25,0.009,0.0,0.001,0.0
12/10/2022,06:57:25,0.009,0.0,0.001,0.0
12/10/2022,06:58:25,0.010,0.0,0.001,0.0
12/10/2022,06:59:25,0.009,0.0,0.001,0.0
12/10/2022,07:00:25,0.010,0.0,0.001,0.0
12/10/2022,07:01:25,0.011,0.0,0.001,0.0
12/10/2022,07:02:25,0.012,0.0,0.002,0.001
12/10/2022,07:03:25,0.012,0.0,0.002,0.0
12/10/2022,07:04:25,0.012,0.0,0.002,0.0
12/10/2022,07:05:25,0.013,0.0,0.002,0.0
12/10/2022,07:06:25,0.014,0.0,0.003,0.001
12/10/2022,07:07:25,0.015,0.0,0.003,0.0
12/10/2022,07:08:25,0.016,0.0,0.003,0.0
12/10/2022,07:09:25,0.017,0.0,0.003,0.0
12/10/2022,07:10:25,0.018,0.0,0.004,0.001
12/10/2022,07:11:25,0.018,0.0,0.004,0.0
12/10/2022,07:12:25,0.018,0.0,0.004,0.0
12/10/2022,07:13:25,0.020,0.0,0.004,0.0
12/10/2022,07:14:25,0.020,0.0,0.005,0.001
12/10/2022,07:15:25,0.021,0.0,0.005,0.0
12/10/2022,07:16:25,0.020,0.0,0.006,0.001
12/10/2022,07:17:26,0.021,0.0,0.006,0.0
12/10/2022,07:18:25,0.021,0.0,0.006,0.0
12/10/2022,07:19:25,0.021,0.0,0.007,0.001
12/10/2022,07:20:25,0.021,0.0,0.007,0.0
12/10/2022,07:21:25,0.022,0.0,0.007,0.0
12/10/2022,07:22:25,0.023,0.0,0.008,0.001
12/10/2022,07:23:25,0.023,0.0,0.008,0.0
12/10/2022,07:24:25,0.024,0.0,0.008,0.0
12/10/2022,07:25:25,0.025,0.0,0.009,0.001
12/10/2022,07:26:25,0.027,0.0,0.009,0.0
12/10/2022,07:27:25,0.027,0.0,0.01,0.001
12/10/2022,07:28:25,0.028,0.0,0.01,0.0
12/10/2022,07:29:25,0.028,0.0,0.011,0.001
12/10/2022,07:30:25,0.028,0.0,0.011,0.0
12/10/2022,07:31:25,0.029,0.0,0.012,0.001
12/10/2022,07:32:25,0.030,0.0,0.012,0.0
12/10/2022,07:33:25,0.033,0.0,0.013,0.001
12/10/2022,07:34:25,0.035,0.0,0.013,0.0
12/10/2022,07:35:25,0.039,0.0,0.014,0.001
12/10/2022,07:36:25,0.042,0.0,0.014,0.0
12/10/2022,07:37:25,0.045,0.0,0.015,0.001
12/10/2022,07:38:25,0.048,0.0,0.016,0.001
12/10/2022,07:39:25,0.050,0.0,0.017,0.001
12/10/2022,07:40:25,0.052,0.0,0.018,0.001
12/10/2022,07:41:26,0.052,0.0,0.018,0.0
12/10/2022,07:42:25,0.055,0.0,0.019,0.001
12/10/2022,07:43:25,0.056,0.0,0.02,0.001
12/10/2022,07:44:25,0.060,0.0,0.021,0.001
12/10/2022,07:45:25,0.061,0.0,0.022,0.001
12/10/2022,07:46:25,0.061,0.0,0.023,0.001
12/10/2022,07:47:25,0.064,0.0,0.024,0.001
12/10/2022,07:48:25,0.066,0.0,0.025,0.001
12/10/2022,07:49:25,0.067,0.0,0.027,0.002
12/10/2022,07:50:25,0.068,0.0,0.028,0.001
12/10/2022,07:51:25,0.072,0.0,0.029,0.001
12/10/2022,07:52:26,0.074,0.0,0.03,0.001
12/10/2022,07:53:25,0.076,0.0,0.031,0.001
12/10/2022,07:54:25,0.080,0.0,0.033,0.002
12/10/2022,07:55:25,0.082,0.0,0.034,0.001
12/10/2022,07:56:25,0.085,0.0,0.035,0.001
12/10/2022,07:57:25,0.088,0.0,0.037,0.002
12/10/2022,07:58:25,0.090,0.0,0.038,0.001
12/10/2022,07:59:25,0.093,0.0,0.04,0.002
12/10/2022,08:00:25,0.096,0.0,0.041,0.001
12/10/2022,08:01:26,0.099,0.0,0.043,0.002
12/10/2022,08:02:25,0.101,0.0,0.045,0.002
12/10/2022,08:03:25,0.103,0.0,0.046,0.001
12/10/2022,08:04:25,0.106,0.0,0.048,0.002
12/10/2022,08:05:26,0.108,0.0,0.05,0.002
12/10/2022,08:06:25,0.110,0.0,0.052,0.002
12/10/2022,08:07:59,0.114,0.0,0.055,0.003
12/10/2022,08:10:44,0.120,0.0,0.06,0.005
12/10/2022,08:11:25,0.122,0.0,0.061,0.001
12/10/2022,08:12:25,0.124,0.0,0.063,0.002
12/10/2022,08:13:26,0.126,0.0,0.066,0.003
12/10/2022,08:14:25,0.129,0.0,0.068,0.002
12/10/2022,08:15:25,0.131,0.0,0.07,0.002
12/10/2022,08:16:25,0.132,0.0,0.072,0.002
12/10/2022,08:18:43,0.138,0.0,0.077,0.005
12/10/2022,08:19:25,0.141,0.0,0.079,0.002
12/10/2022,08:20:25,0.139,0.0,0.081,0.002
12/10/2022,08:21:25,0.137,0.0,0.083,0.002
12/10/2022,08:22:25,0.138,0.0,0.086,0.003
12/10/2022,08:23:26,0.139,0.0,0.088,0.002
12/10/2022,08:24:25,0.142,0.0,0.09,0.002
12/10/2022,08:25:25,0.145,0.0,0.093,0.003
12/10/2022,08:26:25,0.146,0.0,0.095,0.002
12/10/2022,08:27:25,0.150,0.0,0.098,0.003
12/10/2022,08:28:25,0.152,0.0,0.1,0.002
12/10/2022,08:29:26,0.154,0.0,0.103,0.003
12/10/2022,08:30:25,0.157,0.0,0.105,0.002
12/10/2022,08:31:26,0.158,0.0,0.108,0.003
12/10/2022,08:32:25,0.161,0.0,0.111,0.003
12/10/2022,08:33:25,0.165,0.0,0.113,0.002
12/10/2022,08:34:25,0.166,0.0,0.116,0.003
12/10/2022,08:35:25,0.169,0.0,0.119,0.003
12/10/2022,08:36:25,0.172,0.0,0.122,0.003
12/10/2022,08:37:26,0.172,0.0,0.125,0.003
12/10/2022,08:38:25,0.173,0.0,0.127,0.002
12/10/2022,08:39:25,0.178,0.0,0.13,0.003
12/10/2022,08:40:26,0.181,0.0,0.133,0.003
12/10/2022,08:41:25,0.197,0.0,0.136,0.003
12/10/2022,08:42:25,0.205,0.0,0.14,0.004
12/10/2022,08:43:25,0.209,0.0,0.143,0.003
12/10/2022,08:44:26,0.211,0.0,0.147,0.004
12/10/2022,08:45:25,0.215,0.0,0.15,0.003
12/10/2022,08:46:25,0.217,1.0,0.154,0.004
12/10/2022,08:47:26,0.220,1.0,0.158,0.004
12/10/2022,08:48:25,0.223,1.0,0.161,0.003
12/10/2022,08:49:25,0.228,1.0,0.165,0.004
12/10/2022,08:50:25,0.229,1.0,0.169,0.004
12/10/2022,08:51:25,0.232,1.0,0.173,0.004
12/10/2022,08:52:25,0.235,1.0,0.177,0.004
12/10/2022,08:53:25,0.238,1.0,0.181,0.004
12/10/2022,08:54:25,0.242,1.0,0.185,0.004
12/10/2022,08:55:25,0.244,1.0,0.189,0.004
12/10/2022,08:56:25,0.249,1.0,0.193,0.004
12/10/2022,08:57:25,0.254,1.0,0.197,0.004
12/10/2022,08:58:26,0.258,1.0,0.201,0.004
12/10/2022,08:59:25,0.261,1.0,0.206,0.005
12/10/2022,09:00:25,0.265,1.0,0.21,0.004
12/10/2022,09:01:25,0.270,1.0,0.214,0.004
12/10/2022,09:02:25,0.275,1.0,0.219,0.005
12/10/2022,09:03:25,0.282,1.0,0.223,0.004
12/10/2022,09:04:25,0.291,1.0,0.228,0.005
12/10/2022,09:05:25,0.298,1.0,0.233,0.005
12/10/2022,09:06:25,0.302,1.0,0.238,0.005
12/10/2022,09:07:25,0.302,1.0,0.243,0.005
12/10/2022,09:08:25,0.277,1.0,0.248,0.005
12/10/2022,09:09:26,0.257,1.0,0.253,0.005
12/10/2022,09:10:25,0.252,1.0,0.257,0.004
12/10/2022,09:11:25,0.250,1.0,0.261,0.004
12/10/2022,09:12:25,0.266,1.0,0.265,0.004
12/10/2022,09:13:25,0.250,1.0,0.269,0.004
12/10/2022,09:14:26,0.252,1.0,0.274,0.005
12/10/2022,09:15:25,0.252,1.0,0.278,0.004
12/10/2022,09:17:43,0.245,1.0,0.288,0.01
12/10/2022,09:18:25,0.242,1.0,0.29,0.002
12/10/2022,09:19:26,0.239,1.0,0.295,0.005
12/10/2022,09:20:25,0.247,1.0,0.299,0.004
12/10/2022,09:21:25,0.257,1.0,0.303,0.004
12/10/2022,09:22:25,0.268,1.0,0.307,0.004
12/10/2022,09:23:26,0.269,1.0,0.312,0.005
12/10/2022,09:24:25,0.266,1.0,0.316,0.004
12/10/2022,09:25:25,0.263,1.0,0.32,0.004
12/10/2022,09:26:25,0.258,1.0,0.325,0.005
12/10/2022,09:27:25,0.253,1.0,0.329,0.004
12/10/2022,09:28:25,0.247,1.0,0.333,0.004
12/10/2022,09:29:25,0.241,1.0,0.337,0.004
12/10/2022,09:30:25,0.233,1.0,0.341,0.004
12/10/2022,09:31:25,0.226,1.0,0.345,0.004
12/10/2022,09:32:25,0.222,1.0,0.349,0.004
12/10/2022,09:33:26,0.219,1.0,0.353,0.004
12/10/2022,09:34:25,0.219,1.0,0.356,0.003
12/10/2022,09:35:25,0.225,1.0,0.36,0.004
12/10/2022,09:36:25,0.231,1.0,0.364,0.004
12/10/2022,09:37:25,0.237,1.0,0.368,0.004
12/10/2022,09:38:26,0.242,1.0,0.372,0.004
12/10/2022,09:39:25,0.243,1.0,0.376,0.004
12/10/2022,09:40:25,0.242,1.0,0.38,0.004
12/10/2022,09:41:25,0.242,1.0,0.384,0.004
12/10/2022,09:42:26,0.244,1.0,0.388,0.004
12/10/2022,09:43:25,0.246,1.0,0.392,0.004
12/10/2022,09:44:25,0.243,1.0,0.396,0.004
12/10/2022,09:45:26,0.238,1.0,0.4,0.004
12/10/2022,09:46:25,0.233,1.0,0.404,0.004
12/10/2022,09:47:25,0.232,1.0,0.408,0.004
12/10/2022,09:48:26,0.230,1.0,0.412,0.004
12/10/2022,09:49:25,0.226,1.0,0.415,0.003
12/10/2022,09:50:25,0.222,1.0,0.419,0.004
12/10/2022,09:51:25,0.221,1.0,0.423,0.004
12/10/2022,09:52:25,0.227,1.0,0.427,0.004
12/10/2022,09:53:25,0.237,1.0,0.43,0.003
12/10/2022,09:54:25,0.247,1.0,0.434,0.004
12/10/2022,09:55:25,0.255,1.0,0.439,0.005
12/10/2022,09:56:26,0.262,1.0,0.443,0.004
12/10/2022,09:57:25,0.267,1.0,0.447,0.004
12/10/2022,09:58:25,0.268,1.0,0.452,0.005
12/10/2022,09:59:25,0.263,1.0,0.456,0.004
12/10/2022,10:00:26,0.259,1.0,0.461,0.005
12/10/2022,10:01:25,0.255,1.0,0.465,0.004
12/10/2022,10:02:25,0.256,1.0,0.469,0.004
12/10/2022,10:03:26,0.260,1.0,0.474,0.005
12/10/2022,10:04:25,0.269,1.0,0.478,0.004
12/10/2022,10:05:25,0.276,1.0,0.482,0.004
12/10/2022,10:06:25,0.284,1.0,0.487,0.005
12/10/2022,10:07:26,0.290,1.0,0.492,0.005
12/10/2022,10:08:25,0.294,1.0,0.497,0.005
12/10/2022,10:09:26,0.295,1.0,0.502,0.005
12/10/2022,10:10:25,0.293,1.0,0.507,0.005
12/10/2022,10:11:25,0.289,1.0,0.511,0.004
12/10/2022,10:12:26,0.288,1.0,0.516,0.005